Other Public Products
Issued by NWS Grand Forks, ND

Home | Current Version | Previous Version | Graphics & Text | Print | Product List | Glossary On
Versions: 1 2 3 4 5 6 7 8 9 10 11 12 13 14 15 16 17 18 19 20 21 22 23 24 25 26 27 28 29 30 31 32 33 34 35 36 37 38 39 40 41 42 43 44 45 46 47 48 49 50
000
FPUS83 KFGF 261031
OPUFGF
PRAIRIE TO PINES WEATHER ROUNDUP
NATIONAL WEATHER SERVICE EASTERN NORTH DAKOTA/GRAND FORKS ND
500 AM CDT SAT JUL 26 2014

 **SATELLITE DATA USED TO AUGMENT SKY COVER AT AUTOMATED STATIONS**
 *****  WEATHER ACROSS EASTERN NORTH DAKOTA  *****

CITY           SKY/WX    TMP DP  RH WIND       PRES   REMARKS
GRAND FORKS    CLEAR     58  54  86 S8        29.74F
GRAND FORKS AF CLEAR     59  56  89 S6        29.74F
GRAND CITY NWS   N/A     59 N/A N/A SW1         N/A
BUXTON           N/A     61  59  93 S6          N/A
DEVILS LAKE    CLEAR     66  55  68 SW21      29.74R
FARGO          CLEAR     59  55  87 S5        29.79S
WAHPETON ARPT  SUNNY     55  52  88 CALM      29.80F
$$

 *****  WEATHER ACROSS CENTRAL AND WESTERN NORTH DAKOTA  *****

CITY           SKY/WX    TMP DP  RH WIND       PRES   REMARKS
JAMESTOWN      CLEAR     57  54  89 S7        29.79F
BISMARCK       CLEAR     59  52  77 W7        29.83R
MINOT          CLEAR     61  48  62 W14G22    29.78R
MINOT AFB      CLEAR     58  53  83 W14       29.76S
GARRISON         N/A     53  51  93 W7        29.81F
WILLISTON      CLEAR     58  49  72 W20G28    29.85S
DICKINSON      CLEAR     52  45  77 W10       29.90R
HETTINGER      CLEAR     57  45  64 NW14      29.92R
$$

 *****  OTHER OBSERVATIONS NORTHEAST NORTH DAKOTA  *****

CITY           SKY/WX    TMP DP  RH WIND       PRES   REMARKS
WALHALLA         N/A     66  52  59 SW13G20     N/A
LANGDON        FAIR      55  52  88 S8        29.73F
CAVALIER       FAIR      57  54  88 S5        29.71F
GRAFTON        FAIR      54  54 100 S8        29.72F
CANDO          FAIR      57  54  88 SW9       29.75S
FORT TOTTEN      N/A     63  55  76 S8        29.95
ROLLA          FAIR      55  55 100 SW12      29.75S
RUGBY          FAIR      55  55 100 SW8       29.76R
 ***** THE ABOVE OBSERVATIONS ARE NON NWS ARE NOT QUALITY
        CONTROLLED AND MAY MIS-REPORT RAIN FOR SNOW...
$$

 *****  OTHER OBSERVATIONS SOUTHEAST NORTH DAKOTA *****

CITY           SKY/WX    TMP DP  RH WIND       PRES   REMARKS
COOPERSTOWN    NOT AVBL
VALLEY CITY    FAIR      54  54 100 S5        29.79F
OAKES          NOT AVBL
GWINNER        SUNNY     57  57 100 SW3       29.81S
BUFFALO        NOT AVBL
WYNDMERE       NOT AVBL
 ***** THE ABOVE OBSERVATIONS ARE NON NWS ARE NOT QUALITY
       CONTROLLED AND MAY MIS-REPORT RAIN FOR SNOW...
$$

  *****  WEATHER ACROSS NORTHERN MINNESOTA  *****

CITY           SKY/WX    TMP DP  RH WIND       PRES   REMARKS
FLAG ISLAND    CLEAR     64  54  68 W12       29.72S
WARROAD        CLEAR     55  52  88 SW5       29.75S
ROSEAU         CLEAR     57  52  82 CALM      29.75S
HALLOCK        CLEAR     55  52  88 S7        29.72S
THF RVR FALLS  CLEAR     54  52  94 S7        29.77S
HALSTAD          N/A     55  54  95 S6          N/A
FOSSTON        CLEAR     52  52 100 S7        29.79S
BAUDETTE       CLEAR     58  53  84 CALM      29.76S
WASKISH        CLEAR     68  57  68 W9        29.77R
CROOKSTON      CLEAR     55  54  94 S5        29.77S
$$
  *****  WEATHER ACROSS CENTRAL AND WEST MINNESOTA  *****

CITY           SKY/WX    TMP DP  RH WIND       PRES   REMARKS
BEMIDJI        CLEAR     57  53  86 CALM      29.79S
PARK RAPIDS    CLEAR     53  52  96 W5        29.81S
WADENA         CLEAR     54  52  94 CALM      29.82S
DETROIT LAKES  CLEAR     61  57  88 SW5       29.83R
MOORHEAD       CLEAR     59  57  94 SE3       29.80F
FERGUS FALLS   CLEAR     61  57  88 CALM      29.82F
ELBOW LAKE     FAIR      62  60  94 CALM      29.82F
MORRIS MN      CLEAR     57  57 100 NE5       29.80F FOG
STAPLES        CLEAR     55  55 100 W5        29.83R
WHEATON        CLEAR     55  54  94 SE3       29.82F
$$
  *****  WEATHER ELSEWHERE ACROSS MINNESOTA  *****

CITY           SKY/WX    TMP DP  RH WIND       PRES   REMARKS
DULUTH         PTCLDY    68  65  90 NW8       29.77S
INTRNTL FALLS  CLEAR     56  55  97 W5        29.74S
ELY            CLEAR     61  61 100 CALM      29.75S
CLOQUET        CLEAR     64  63  94 W6        29.78S
BRAINERD       CLEAR     57  57 100 CALM      29.82R FOG
HIBBING        CLEAR     52  50  93 CALM      29.77S FOG
ALEXANDRIA     CLEAR     60  58  92 CALM      29.85R
SAINT CLOUD    FOG       63  62  97 CALM      29.80S VSB 1/4
MINNEAPOLIS    PTCLDY    73  69  87 SW5       29.79F
$$

  *****  WEATHER ACROSS SOUTH DAKOTA  *****

CITY           SKY/WX    TMP DP  RH WIND       PRES   REMARKS
SIOUX FALLS    CLOUDY    71  69  93 E7        29.83R
BROOKINGS      NOT AVBL
WATERTOWN      CLOUDY    65  64  97 VRB3      29.85S
HURON          LGT RAIN  67  66  97 NW6       29.84R
SISSETON         N/A     57  56  96 CALM      29.79F
ABERDEEN       MOCLDY    61  61 100 CALM      29.80F
MITCHELL       MOCLDY    68  66  93 NE7       29.84R
PIERRE         MOCLDY    69  67  93 E7        29.82R
MOBRIDGE       PTCLDY    67  66  97 S3        29.80R
RAPID CITY     CLEAR     61  50  67 N12       29.91R
$$

  *****  SOME WEATHER IN NEARBY STATES *****

CITY           SKY/WX    TMP DP  RH WIND       PRES   REMARKS
GLASGOW MT     CLEAR     56  49  77 W14       29.93R
GREAT FALLS MT CLEAR     50  39  66 CALM      30.09R
CHEYENNE WY    CLEAR     70  44  39 W18G24    30.13R
SCOTTSBLUFF NE CLEAR     65  55  70 W12       29.95R
OMAHA NE       MOCLDY    74  70  87 SE5       29.80F
DES MOINES IA  MOCLDY    71  68  90 NE6       29.80R
DAVENPORT IA   CLOUDY    66  62  87 E3        29.82S
CHICAGO IL     CLOUDY    69  58  67 SW6       29.85F
EAU CLAIRE WI  CLOUDY    69  67  93 SW7       29.80S
LA CROSSE WI   CLOUDY    69  65  86 SW6       29.82S
$$

  *****  SOME NATIONAL WEATHER *****

CITY           SKY/WX    TMP DP  RH WIND       PRES   REMARKS
LA GUARDIA NY  MOCLDY    71  57  61 SW7       30.00R
RALEIGH NC     FOG       72  70  94 S5        30.02R VSB 1/4
ATLANTA GA     PTCLDY    70  67  90 W3        30.03R
NEW ORLEANS LA PTCLDY    78  75  90 SW5       30.02R
OKLAHOMA CITY  PTCLDY    74  66  76 S9        29.93R
ALBUQUERQUE NM PTCLDY    75  42  30 SE6       30.13R
SALT LAKE CITY PTCLDY    69  46  43 W3        30.03S
LOS ANGELES CA CLOUDY    66  64  94 NW3       29.91F FOG
BOISE ID       CLEAR     60  31  33 SE3       30.05R
SEATTLE WA     CLEAR     59  52  77 NE10      30.13S
$$

*** WEATHER ACROSS MANITOBA...SASKATCHEWAN AND ONTARIO ***
                ***ONTARIO***

CITY           SKY/WX    TMP DP  RH WIND       PRES   REMARKS
GERALDTON      CLOUDY   N/A N/A N/A SE2         N/A  FOG
THUNDER BAY      N/A     57  57 100 E3        29.70F
SIOUX LOOKOUT  PTCLDY    64  63  94 W3        29.68S
TORONTO        MOCLDY    63  55  77 W3        29.93S
BIG TROUT LK   CLOUDY    52  45  76 NE9G17    29.85S
PICKLE LAKE    NOT AVBL
DRYDEN         CLEAR     59  59 100 W8        29.69F
KENORA         PTCLDY    61  55  82 W7        29.73S
$$
                *** MANITOBA***

CITY           SKY/WX    TMP DP  RH WIND       PRES   REMARKS
BRANDON        LGT RAIN  61  55  82 W10       29.68R
DAUPHIN        PTCLDY    61  55  82 SW10      29.61R
ISLAND LAKE    PTCLDY    55  52  88 E9G17     29.80
PILOT MOUND      N/A     57  54  88 SW8         N/A
THE PAS        LGT RAIN  61  59  94 E8        29.69R
THOMPSON       LGT RAIN N/A N/A N/A E13G18      N/A
WINNIPEG       PTCLDY    61  52  72 SW8       29.69F
LYNN LAKE      MOCLDY    52  50  93 NE6       29.93R
CHURCHILL      FOG       45  45 100 NE12      30.08  VSB 1/4
GILLAM         DRIZZLE   46  43  87 NE12G17   29.96R FOG
$$
                ***SASKATCHEWAN***

CITY           SKY/WX    TMP DP  RH WIND       PRES   REMARKS
ESTEVAN        PTCLDY    57  52  82 W13       29.75S
KINDERSLEY     CLOUDY    57  54  88 NW13G22   29.86
LLOYDMINSTER   CLOUDY    57  55  94 NW16G23   29.85R
PRINCE ALBERT  MOCLDY    55  55 100 CALM      29.72R
REGINA         LGT RAIN  55  54  94 W29G35    29.68R
YORKTON        LGT RAIN  55  54  94 SW6       29.60S



USA.gov is the U.S. government's official web portal to all federal, state and local government web resources and services.